Regional Weather Roundup
Issued by NWS

Home | Current Version | Previous Version | Text Only | Print | Product List | Glossary Off
Versions: 1 2 3 4 5 6 7 8 9 10 11 12 13 14 15 16 17 18 19 20 21 22 23 24 25 26 27 28 29 30 31 32 33 34 35 36 37 38 39 40 41 42 43 44 45 46 47 48 49 50

000
ASUS43 KIND 131359
RWRIN

WEATHER ROUNDUP FOR INDIANA
NATIONAL WEATHER SERVICE INDIANAPOLIS IN
900 AM EST WED DEC 13 2017

NOTE: "FAIR" INDICATES FEW OR NO CLOUDS BELOW 12,000 FEET WITH NO
SIGNIFICANT WEATHER AND/OR OBSTRUCTIONS TO VISIBILITY.

* - STATION DOES NOT REPORT WEATHER SUCH AS PRECIPITATION OR FOG.

+ - STATION NOT QUALITY CONTROLLED BY THE NATIONAL WEATHER SERVICE.
    USE DATA WITH CAUTION...ESPECIALLY DEWPOINT AND RELATIVE
    HUMIDITY OBSERVATIONS.

INZ001>003-010>013-019-020-131500-
NORTHWEST INDIANA

CITY           SKY/WX    TMP DP  RH WIND       PRES   REMARKS
KNOX *+        CLOUDY    23  12  63 S14       29.69F WCI  11
LA PORTE +     MOCLDY    22  11  63 S12G17    29.65F WCI  10
MICHIGAN CITY+ CLOUDY    23  10  58 S10G23    29.63F WCI  12
MONTICELLO +   CLOUDY    25   8  48 S10       29.71F WCI  15
RENSSELAER +   CLOUDY    28   5  37 S14       29.69F WCI  17

$$

LMZ046-743>745-131500-
SOUTHERN LAKE MICHIGAN

STATION/POSITION TIME  TEMP    WIND        PRES    WAVE
                       AIR SEA DIR/SP/G            HT
                 (UTC) (F)     (DEG/KT/KT) (MB)    (FT)
BURNS HARBOR     1340   25     180/ 12/ 25 1003.4F
MICHIGAN CITY    1330   23     150/ 17/ 22   N/A

$$

INZ004-005-014>016-021>024-131500-
NORTH CENTRAL INDIANA

CITY           SKY/WX    TMP DP  RH WIND       PRES   REMARKS
ELKHART        CLOUDY    21  10  63 S9        29.69F WCI  11
GOSHEN         CLOUDY    21  10  62 S13       29.70F WCI   9
PERU/GRISSOM   CLOUDY    24   9  52 S12       29.72F WCI  13
ROCHESTER +    CLOUDY    27  14  59 S12       29.73F WCI  16
SOUTH BEND     CLOUDY    21  11  65 S14       29.67F WCI   8
WARSAW +       CLOUDY    21  12  68 S8        29.72F WCI  12

$$

INZ006>009-017-018-025>027-131500-
NORTHEAST INDIANA

CITY           SKY/WX    TMP DP  RH WIND       PRES   REMARKS
AUBURN +       CLOUDY    21  10  63 S7        29.75F WCI  13
FORT WAYNE     CLOUDY    20  12  71 S12       29.76F WCI   8
KENDALLVILLE + CLOUDY    19  11  70 S8        29.73F WCI   9

$$

INZ028-029-035-036-043>045-051>053-131500-
WEST CENTRAL INDIANA

CITY           SKY/WX    TMP DP  RH WIND       PRES   REMARKS
CRAWFORDSVL +  CLOUDY    24   9  53 S14         N/A  WCI  12
GREENCASTLE +  CLOUDY    27   9  46 S7        29.78F WCI  19
LAFAYETTE      CLOUDY    26   9  48 S9        29.73F WCI  17
TERRE HAUTE    CLOUDY    27   9  46 S16       29.78F WCI  15

$$

INZ030>032-037>040-046>048-054>057-064-065-131500-
CENTRAL INDIANA

CITY           SKY/WX    TMP DP  RH WIND       PRES   REMARKS
ANDERSON       CLOUDY    23  10  58 S12       28.81  WCI  12
FRANKFORT +    CLOUDY    28  11  49 S10G16    29.75F WCI  19
INDIANAPOLIS   CLOUDY    25   8  48 S13       29.79F WCI  14
-EAGLE CREEK   CLOUDY    24   7  48 S9        29.78F WCI  14
KOKOMO +       CLOUDY    23  11  60 S16       29.75F WCI  10
MT COMFORT *+  CLOUDY    23  14  68 S9        29.80F WCI  13
SHELBYVILLE    CLOUDY    24  10  55 S13       29.84F WCI  12
ZIONSVILLE +   CLOUDY    23   8  51 S12       29.77F WCI  12

$$

INZ033-034-041-042-049-050-058-059-131500-
EAST CENTRAL INDIANA

CITY           SKY/WX    TMP DP  RH WIND       PRES   REMARKS
MUNCIE         CLOUDY    24   8  50 S10       29.79F WCI  14
RICHMOND +     CLOUDY    21  12  68 S13       29.83F WCI   9

$$

INZ060-061-067>069-081>083-085>088-131500-
SOUTHWEST INDIANA

CITY           SKY/WX    TMP DP  RH WIND       PRES   REMARKS
EVANSVILLE     PTCLDY    30  14  51 SW12      29.90F WCI  20
HUNTINGBURG +  CLOUDY    26  16  65 S12       29.90F WCI  16

$$

INZ062-063-066-070>080-084-089>092-131500-
SOUTH CENTRAL AND SOUTHEAST INDIANA

CITY           SKY/WX    TMP DP  RH WIND       PRES   REMARKS
BLOOMINGTON    CLOUDY    25   8  48 S9        29.82F WCI  15
MADISON *+     SUNNY     27  12  54 S10       29.90S WCI  17
SEYMOUR +      CLOUDY    25  10  54 S8        29.87F WCI  16

$$





USA.gov is the U.S. government's official web portal to all federal, state and local government web resources and services.